Time,TemperatureF,DewpointF,PressureIn,WindDirection,WindDirectionDegrees,WindSpeedMPH,WindSpeedGustMPH,Humidity,HourlyPrecipIn,Conditions,Clouds,dailyrainin,SoftwareType,DateUTC
2013-03-02 00:02:00,50.5,48.6,30.32,NNW,332,0.0,3.0,93,0.00,,---,0.01,VWS V14.00,2013-03-02 08:02:00,
2013-03-02 00:07:00,50.6,48.7,30.32,NNW,332,0.0,1.0,93,0.00,,---,0.00,VWS V14.00,2013-03-02 08:07:00,
2013-03-02 00:12:00,50.7,48.5,30.32,NW,312,0.0,2.0,92,0.00,,---,0.00,VWS V14.00,2013-03-02 08:12:00,
2013-03-02 00:17:00,50.8,48.6,30.32,NW,312,0.0,2.0,92,0.00,,---,0.00,VWS V14.00,2013-03-02 08:17:00,
2013-03-02 00:22:00,50.8,48.6,30.32,NW,312,0.0,2.0,92,0.00,,---,0.00,VWS V14.00,2013-03-02 08:22:00,
2013-03-02 00:27:00,50.8,48.6,30.32,NNW,336,0.0,2.0,92,0.00,,---,0.00,VWS V14.00,2013-03-02 08:27:00,
2013-03-02 00:32:00,50.8,48.6,30.32,NNW,336,0.0,2.0,92,0.00,,---,0.00,VWS V14.00,2013-03-02 08:32:00,
2013-03-02 00:37:00,50.8,48.6,30.32,NNW,336,0.0,0.0,92,0.00,,---,0.00,VWS V14.00,2013-03-02 08:37:00,
2013-03-02 00:42:00,50.8,48.6,30.32,NNW,336,0.0,0.0,92,0.00,,---,0.00,VWS V14.00,2013-03-02 08:42:00,
2013-03-02 00:47:00,50.8,48.6,30.32,NNW,336,0.0,0.0,92,0.00,,---,0.00,VWS V14.00,2013-03-02 08:47:00,
2013-03-02 00:52:00,50.7,48.5,30.31,NNW,336,0.0,0.0,92,0.00,,---,0.00,VWS V14.00,2013-03-02 08:52:00,
2013-03-02 00:57:00,50.7,48.8,30.31,NNW,336,0.0,0.0,93,0.00,,---,0.00,VWS V14.00,2013-03-02 08:57:00,
2013-03-02 01:02:00,50.7,48.5,30.31,NNW,336,0.0,0.0,92,0.00,,---,0.00,VWS V14.00,2013-03-02 09:02:00,
2013-03-02 01:07:00,50.6,48.7,30.31,NNW,336,0.0,0.0,93,0.00,,---,0.00,VWS V14.00,2013-03-02 09:07:00,
2013-03-02 01:12:00,50.7,48.8,30.31,NNW,336,0.0,0.0,93,0.00,,---,0.00,VWS V14.00,2013-03-02 09:12:00,
2013-03-02 01:17:00,50.6,48.7,30.31,NNW,336,0.0,0.0,93,0.00,,---,0.00,VWS V14.00,2013-03-02 09:17:00,
2013-03-02 01:22:00,50.6,48.7,30.31,NNW,336,0.0,0.0,93,0.00,,---,0.00,VWS V14.00,2013-03-02 09:22:00,
2013-03-02 01:27:00,50.5,48.6,30.31,NNW,336,0.0,0.0,93,0.00,,---,0.00,VWS V14.00,2013-03-02 09:27:00,
2013-03-02 01:32:00,50.5,48.6,30.31,NNW,336,0.0,0.0,93,0.00,,---,0.00,VWS V14.00,2013-03-02 09:32:00,
2013-03-02 01:37:00,50.5,48.6,30.31,NNW,336,0.0,0.0,93,0.00,,---,0.00,VWS V14.00,2013-03-02 09:37:00,
2013-03-02 01:42:00,50.5,48.6,30.31,NNW,336,0.0,0.0,93,0.00,,---,0.00,VWS V14.00,2013-03-02 09:42:00,
2013-03-02 01:47:00,50.4,48.5,30.31,NNW,336,0.0,0.0,93,0.00,,---,0.00,VWS V14.00,2013-03-02 09:47:00,
2013-03-02 01:52:00,50.4,48.5,30.31,NNW,336,0.0,0.0,93,0.00,,---,0.00,VWS V14.00,2013-03-02 09:52:00,
2013-03-02 01:57:00,50.4,48.5,30.30,NNW,336,0.0,0.0,93,0.00,,---,0.00,VWS V14.00,2013-03-02 09:57:00,
2013-03-02 02:02:00,50.4,48.5,30.30,NNW,336,0.0,0.0,93,0.00,,---,0.00,VWS V14.00,2013-03-02 10:02:00,
2013-03-02 02:07:00,50.3,48.4,30.30,NNW,336,0.0,0.0,93,0.00,,---,0.00,VWS V14.00,2013-03-02 10:07:00,
2013-03-02 02:12:00,50.3,48.4,30.30,NNW,336,0.0,0.0,93,0.00,,---,0.00,VWS V14.00,2013-03-02 10:12:00,
2013-03-02 02:17:00,50.3,48.4,30.30,NNW,336,0.0,0.0,93,0.00,,---,0.00,VWS V14.00,2013-03-02 10:17:00,
2013-03-02 02:22:00,50.2,48.3,30.29,NNW,336,0.0,0.0,93,0.00,,---,0.00,VWS V14.00,2013-03-02 10:22:00,
2013-03-02 02:27:00,50.2,48.3,30.29,NNW,336,0.0,0.0,93,0.00,,---,0.00,VWS V14.00,2013-03-02 10:27:00,
2013-03-02 02:32:00,50.1,48.2,30.29,NNW,336,0.0,0.0,93,0.00,,---,0.00,VWS V14.00,2013-03-02 10:32:00,
2013-03-02 02:37:00,50.1,47.9,30.29,NNW,336,0.0,0.0,92,0.00,,---,0.00,VWS V14.00,2013-03-02 10:37:00,
2013-03-02 02:43:00,50.0,48.1,30.27,NNW,336,0.0,0.0,93,0.00,,---,0.00,VWS V14.00,2013-03-02 10:43:00,
2013-03-02 02:48:00,50.0,48.1,30.28,NNW,336,0.0,0.0,93,0.00,,---,0.00,VWS V14.00,2013-03-02 10:48:00,
2013-03-02 02:53:00,49.9,48.0,30.27,NNW,336,0.0,0.0,93,0.00,,---,0.00,VWS V14.00,2013-03-02 10:53:00,
2013-03-02 02:58:00,49.9,48.0,30.27,NNW,336,0.0,0.0,93,0.00,,---,0.00,VWS V14.00,2013-03-02 10:58:00,
2013-03-02 03:03:00,49.8,47.6,30.27,NNW,336,0.0,0.0,92,0.00,,---,0.00,VWS V14.00,2013-03-02 11:03:00,
2013-03-02 03:08:00,49.8,47.9,30.27,NNW,336,0.0,0.0,93,0.00,,---,0.00,VWS V14.00,2013-03-02 11:08:00,
2013-03-02 03:13:00,49.7,47.8,30.26,NNW,336,0.0,0.0,93,0.00,,---,0.00,VWS V14.00,2013-03-02 11:13:00,
2013-03-02 03:18:00,49.7,47.8,30.27,NNW,336,0.0,0.0,93,0.00,,---,0.00,VWS V14.00,2013-03-02 11:18:00,
2013-03-02 03:23:00,49.7,47.8,30.27,NNW,327,0.0,0.0,93,0.00,,---,0.00,VWS V14.00,2013-03-02 11:23:00,
2013-03-02 03:28:00,49.7,47.8,30.27,NNW,327,0.0,0.0,93,0.00,,---,0.00,VWS V14.00,2013-03-02 11:28:00,
2013-03-02 03:33:00,49.7,47.8,30.27,NNW,327,0.0,0.0,93,0.00,,---,0.00,VWS V14.00,2013-03-02 11:33:00,
2013-03-02 03:38:00,49.6,48.0,30.26,NNW,327,0.0,0.0,94,0.00,,---,0.00,VWS V14.00,2013-03-02 11:38:00,
2013-03-02 03:43:00,49.6,47.7,30.26,NNW,327,0.0,0.0,93,0.00,,---,0.00,VWS V14.00,2013-03-02 11:43:00,
2013-03-02 03:48:00,49.6,47.7,30.25,NNW,327,0.0,0.0,93,0.00,,---,0.00,VWS V14.00,2013-03-02 11:48:00,
2013-03-02 03:53:00,49.6,48.0,30.25,NNW,327,0.0,0.0,94,0.00,,---,0.00,VWS V14.00,2013-03-02 11:53:00,
2013-03-02 03:58:00,49.5,47.6,30.26,NNW,327,0.0,0.0,93,0.00,,---,0.00,VWS V14.00,2013-03-02 11:58:00,
2013-03-02 04:03:00,49.3,47.4,30.26,NNW,327,0.0,0.0,93,0.00,,---,0.00,VWS V14.00,2013-03-02 12:03:00,
2013-03-02 04:08:00,49.2,47.0,30.26,NNW,327,0.0,0.0,92,0.00,,---,0.00,VWS V14.00,2013-03-02 12:08:00,
2013-03-02 04:13:00,49.1,47.2,30.26,NNW,327,0.0,0.0,93,0.00,,---,0.00,VWS V14.00,2013-03-02 12:13:00,
2013-03-02 04:18:00,49.0,47.1,30.26,NNW,327,0.0,0.0,93,0.00,,---,0.00,VWS V14.00,2013-03-02 12:18:00,
2013-03-02 04:23:00,49.0,47.1,30.25,NNW,327,0.0,0.0,93,0.00,,---,0.00,VWS V14.00,2013-03-02 12:23:00,
2013-03-02 04:28:00,48.8,46.9,30.25,NNW,327,0.0,0.0,93,0.00,,---,0.00,VWS V14.00,2013-03-02 12:28:00,
2013-03-02 04:33:00,48.7,46.8,30.25,NNW,327,0.0,0.0,93,0.00,,---,0.00,VWS V14.00,2013-03-02 12:33:00,
2013-03-02 04:38:00,48.6,46.7,30.25,NNW,327,0.0,0.0,93,0.00,,---,0.00,VWS V14.00,2013-03-02 12:38:00,
2013-03-02 04:43:00,48.5,46.6,30.25,NNW,327,0.0,0.0,93,0.00,,---,0.00,VWS V14.00,2013-03-02 12:43:00,
2013-03-02 04:48:00,48.5,46.6,30.25,NNW,327,0.0,0.0,93,0.00,,---,0.00,VWS V14.00,2013-03-02 12:48:00,
2013-03-02 04:53:00,48.4,46.5,30.25,NNW,327,0.0,0.0,93,0.00,,---,0.00,VWS V14.00,2013-03-02 12:53:00,
2013-03-02 04:58:00,48.3,46.4,30.25,NNW,327,0.0,0.0,93,0.00,,---,0.00,VWS V14.00,2013-03-02 12:58:00,
2013-03-02 05:03:00,48.3,46.7,30.25,NNW,327,0.0,0.0,94,0.00,,---,0.00,VWS V14.00,2013-03-02 13:03:00,
2013-03-02 05:08:00,48.3,46.7,30.25,NNW,327,0.0,0.0,94,0.00,,---,0.00,VWS V14.00,2013-03-02 13:08:00,
2013-03-02 05:13:00,48.2,46.6,30.25,NNW,327,0.0,0.0,94,0.00,,---,0.00,VWS V14.00,2013-03-02 13:13:00,
2013-03-02 05:18:00,48.2,46.3,30.25,NNW,327,0.0,0.0,93,0.00,,---,0.00,VWS V14.00,2013-03-02 13:18:00,
2013-03-02 05:23:00,48.1,46.2,30.24,NNW,327,0.0,0.0,93,0.00,,---,0.00,VWS V14.00,2013-03-02 13:23:00,
2013-03-02 05:28:00,48.1,46.2,30.24,West,267,0.0,0.0,93,0.00,,---,0.00,VWS V14.00,2013-03-02 13:28:00,
2013-03-02 05:33:00,48.1,45.9,30.24,West,267,0.0,0.0,92,0.00,,---,0.00,VWS V14.00,2013-03-02 13:33:00,
2013-03-02 05:38:00,48.1,45.6,30.24,SW,234,0.0,0.0,91,0.00,,---,0.00,VWS V14.00,2013-03-02 13:38:00,
2013-03-02 05:43:00,48.2,45.7,30.24,SW,234,0.0,0.0,91,0.00,,---,0.00,VWS V14.00,2013-03-02 13:43:00,
2013-03-02 05:48:00,48.1,45.6,30.24,SW,235,0.0,0.0,91,0.00,,---,0.00,VWS V14.00,2013-03-02 13:48:00,
2013-03-02 05:53:00,48.1,45.3,30.24,SW,235,0.0,0.0,90,0.00,,---,0.00,VWS V14.00,2013-03-02 13:53:00,
2013-03-02 05:58:00,48.0,45.5,30.25,SW,235,0.0,0.0,91,0.00,,---,0.00,VWS V14.00,2013-03-02 13:58:00,
2013-03-02 06:03:00,47.9,45.4,30.24,SW,235,0.0,0.0,91,0.00,,---,0.00,VWS V14.00,2013-03-02 14:03:00,
2013-03-02 06:08:00,47.8,45.3,30.25,SW,235,0.0,0.0,91,0.00,,---,0.00,VWS V14.00,2013-03-02 14:08:00,
2013-03-02 06:13:00,47.7,45.2,30.24,SW,235,0.0,0.0,91,0.00,,---,0.00,VWS V14.00,2013-03-02 14:13:00,
2013-03-02 06:18:00,47.6,45.1,30.24,SW,235,0.0,0.0,91,0.00,,---,0.00,VWS V14.00,2013-03-02 14:18:00,
2013-03-02 06:23:00,47.4,44.9,30.24,SW,235,0.0,0.0,91,0.00,,---,0.00,VWS V14.00,2013-03-02 14:23:00,
2013-03-02 06:29:00,47.4,45.2,30.23,SW,235,0.0,0.0,92,0.00,,---,0.00,VWS V14.00,2013-03-02 14:29:00,
2013-03-02 06:34:00,47.4,45.5,30.23,SW,235,0.0,0.0,93,0.00,,---,0.00,VWS V14.00,2013-03-02 14:34:00,
2013-03-02 06:39:00,47.4,45.5,30.23,SW,235,0.0,0.0,93,0.00,,---,0.00,VWS V14.00,2013-03-02 14:39:00,
2013-03-02 06:44:00,47.3,45.1,30.23,SW,235,0.0,0.0,92,0.00,,---,0.00,VWS V14.00,2013-03-02 14:44:00,
2013-03-02 06:49:00,47.2,45.0,30.22,SW,235,0.0,0.0,92,0.00,,---,0.00,VWS V14.00,2013-03-02 14:49:00,
2013-03-02 06:54:00,47.2,45.0,30.22,SW,235,0.0,0.0,92,0.00,,---,0.00,VWS V14.00,2013-03-02 14:54:00,
2013-03-02 06:59:00,47.1,45.2,30.22,SW,235,0.0,0.0,93,0.00,,---,0.00,VWS V14.00,2013-03-02 14:59:00,
2013-03-02 07:04:00,47.0,44.8,30.22,NNW,345,0.0,0.0,92,0.00,,---,0.00,VWS V14.00,2013-03-02 15:04:00,
2013-03-02 07:09:00,47.0,44.8,30.23,NW,313,0.0,0.0,92,0.00,,---,0.00,VWS V14.00,2013-03-02 15:09:00,
2013-03-02 07:14:00,47.2,45.0,30.23,West,261,0.0,0.0,92,0.00,,---,0.00,VWS V14.00,2013-03-02 15:14:00,
2013-03-02 07:19:00,47.4,44.9,30.22,West,261,0.0,0.0,91,0.00,,---,0.00,VWS V14.00,2013-03-02 15:19:00,
2013-03-02 07:24:00,47.5,45.3,30.22,West,261,0.0,0.0,92,0.00,,---,0.00,VWS V14.00,2013-03-02 15:24:00,
2013-03-02 07:29:00,47.6,45.1,30.22,West,261,0.0,0.0,91,0.00,,---,0.00,VWS V14.00,2013-03-02 15:29:00,
2013-03-02 07:34:00,47.7,45.2,30.22,West,261,0.0,0.0,91,0.00,,---,0.00,VWS V14.00,2013-03-02 15:34:00,
2013-03-02 07:39:00,47.8,45.0,30.22,West,261,0.0,0.0,90,0.00,,---,0.00,VWS V14.00,2013-03-02 15:39:00,
2013-03-02 07:44:00,47.9,45.1,30.22,WSW,240,0.0,0.0,90,0.00,,---,0.00,VWS V14.00,2013-03-02 15:44:00,
2013-03-02 07:49:00,48.0,45.5,30.22,WSW,240,0.0,0.0,91,0.00,,---,0.00,VWS V14.00,2013-03-02 15:49:00,
2013-03-02 07:54:00,48.0,45.2,30.22,WSW,240,0.0,0.0,90,0.00,,---,0.00,VWS V14.00,2013-03-02 15:54:00,
2013-03-02 07:59:00,48.0,45.2,30.22,WSW,240,0.0,0.0,90,0.00,,---,0.00,VWS V14.00,2013-03-02 15:59:00,
2013-03-02 08:04:00,48.1,45.3,30.22,WSW,240,0.0,0.0,90,0.00,,---,0.00,VWS V14.00,2013-03-02 16:04:00,
2013-03-02 08:09:00,48.1,45.6,30.23,WSW,240,0.0,0.0,91,0.00,,---,0.00,VWS V14.00,2013-03-02 16:09:00,
2013-03-02 08:14:00,48.2,45.4,30.23,WSW,240,0.0,0.0,90,0.00,,---,0.00,VWS V14.00,2013-03-02 16:14:00,
2013-03-02 08:19:00,48.2,45.7,30.23,WSW,240,0.0,0.0,91,0.00,,---,0.00,VWS V14.00,2013-03-02 16:19:00,
2013-03-02 08:24:00,48.3,45.8,30.23,WSW,240,0.0,0.0,91,0.00,,---,0.00,VWS V14.00,2013-03-02 16:24:00,
2013-03-02 08:29:00,48.3,45.8,30.23,WSW,240,0.0,0.0,91,0.00,,---,0.00,VWS V14.00,2013-03-02 16:29:00,
2013-03-02 08:34:00,48.3,45.5,30.23,WSW,240,0.0,0.0,90,0.00,,---,0.00,VWS V14.00,2013-03-02 16:34:00,
2013-03-02 08:39:00,48.4,45.9,30.23,WSW,240,0.0,0.0,91,0.00,,---,0.00,VWS V14.00,2013-03-02 16:39:00,
2013-03-02 08:44:00,48.5,46.0,30.23,WSW,240,0.0,0.0,91,0.00,,---,0.00,VWS V14.00,2013-03-02 16:44:00,
2013-03-02 08:49:00,48.6,46.1,30.24,WSW,240,0.0,0.0,91,0.00,,---,0.00,VWS V14.00,2013-03-02 16:49:00,
2013-03-02 08:54:00,48.8,46.3,30.24,WSW,239,0.0,0.0,91,0.00,,---,0.00,VWS V14.00,2013-03-02 16:54:00,
2013-03-02 08:59:00,48.9,46.7,30.23,WSW,239,0.0,0.0,92,0.00,,---,0.00,VWS V14.00,2013-03-02 16:59:00,
2013-03-02 09:04:00,49.0,46.8,30.24,SSE,161,0.0,0.0,92,0.00,,---,0.00,VWS V14.00,2013-03-02 17:04:00,
2013-03-02 09:09:00,49.1,46.9,30.24,SSE,159,0.0,0.0,92,0.00,,---,0.00,VWS V14.00,2013-03-02 17:09:00,
2013-03-02 09:14:00,49.2,47.0,30.24,South,188,0.0,0.0,92,0.00,,---,0.00,VWS V14.00,2013-03-02 17:14:00,
2013-03-02 09:19:00,49.2,47.3,30.24,SSW,193,0.0,4.0,93,0.00,,---,0.00,VWS V14.00,2013-03-02 17:19:00,
2013-03-02 09:24:00,49.2,47.3,30.24,SSE,161,0.0,4.0,93,0.00,,---,0.00,VWS V14.00,2013-03-02 17:24:00,
2013-03-02 09:29:00,49.3,47.4,30.24,SSE,161,0.0,4.0,93,0.00,,---,0.00,VWS V14.00,2013-03-02 17:29:00,
2013-03-02 09:34:00,49.4,47.5,30.24,SSE,158,0.0,0.0,93,0.00,,---,0.00,VWS V14.00,2013-03-02 17:34:00,
2013-03-02 09:39:00,49.5,47.8,30.24,SSE,158,0.0,0.0,94,0.00,,---,0.00,VWS V14.00,2013-03-02 17:39:00,
2013-03-02 09:44:00,49.6,48.0,30.25,South,190,0.0,0.0,94,0.00,,---,0.00,VWS V14.00,2013-03-02 17:44:00,
2013-03-02 09:49:00,49.6,48.0,30.24,SSE,163,0.0,0.0,94,0.00,,---,0.00,VWS V14.00,2013-03-02 17:49:00,
2013-03-02 09:54:00,49.6,47.7,30.24,SSE,164,0.0,0.0,93,0.00,,---,0.00,VWS V14.00,2013-03-02 17:54:00,
2013-03-02 09:59:00,49.7,47.8,30.24,SSE,164,0.0,0.0,93,0.00,,---,0.00,VWS V14.00,2013-03-02 17:59:00,
2013-03-02 10:04:00,49.7,47.8,30.24,SSE,164,0.0,0.0,93,0.00,,---,0.00,VWS V14.00,2013-03-02 18:04:00,
2013-03-02 10:09:00,49.9,48.0,30.24,South,171,0.0,0.0,93,0.00,,---,0.00,VWS V14.00,2013-03-02 18:09:00,
2013-03-02 10:14:00,50.0,48.1,30.23,SSE,167,0.0,0.0,93,0.00,,---,0.00,VWS V14.00,2013-03-02 18:14:00,
2013-03-02 10:19:00,50.3,48.4,30.24,SSW,201,0.0,4.0,93,0.00,,---,0.00,VWS V14.00,2013-03-02 18:19:00,
2013-03-02 10:24:00,50.4,48.2,30.23,South,175,0.0,4.0,92,0.00,,---,0.00,VWS V14.00,2013-03-02 18:24:00,
2013-03-02 10:29:00,50.5,48.0,30.23,South,169,0.0,6.0,91,0.00,,---,0.00,VWS V14.00,2013-03-02 18:29:00,
2013-03-02 10:34:00,50.8,48.6,30.23,South,179,0.0,0.0,92,0.00,,---,0.00,VWS V14.00,2013-03-02 18:34:00,
2013-03-02 10:39:00,50.9,48.4,30.23,SSE,157,1.0,2.0,91,0.00,,---,0.00,VWS V14.00,2013-03-02 18:39:00,
2013-03-02 10:44:00,51.1,48.6,30.23,South,169,0.0,4.0,91,0.00,,---,0.00,VWS V14.00,2013-03-02 18:44:00,
2013-03-02 10:50:00,51.2,48.7,30.23,South,173,0.0,5.0,91,0.00,,---,0.00,VWS V14.00,2013-03-02 18:50:00,
2013-03-02 10:55:00,51.4,48.9,30.23,South,191,3.0,5.0,91,0.00,,---,0.00,VWS V14.00,2013-03-02 18:55:00,
2013-03-02 11:00:00,51.4,48.6,30.23,SSE,164,0.0,5.0,90,0.00,,---,0.00,VWS V14.00,2013-03-02 19:00:00,
2013-03-02 11:05:00,51.4,48.6,30.23,SSE,167,2.0,6.0,90,0.00,,---,0.00,VWS V14.00,2013-03-02 19:05:00,
2013-03-02 11:10:00,51.5,48.7,30.23,SSE,166,2.0,6.0,90,0.00,,---,0.00,VWS V14.00,2013-03-02 19:10:00,
2013-03-02 11:15:00,51.6,48.8,30.23,South,177,2.0,6.0,90,0.00,,---,0.00,VWS V14.00,2013-03-02 19:15:00,
2013-03-02 11:20:00,51.7,48.6,30.23,South,170,1.0,6.0,89,0.00,,---,0.00,VWS V14.00,2013-03-02 19:20:00,
2013-03-02 11:25:00,51.9,48.8,30.22,SSE,159,2.0,6.0,89,0.00,,---,0.00,VWS V14.00,2013-03-02 19:25:00,
2013-03-02 11:30:00,52.1,49.0,30.22,SSE,158,0.0,6.0,89,0.00,,---,0.00,VWS V14.00,2013-03-02 19:30:00,
2013-03-02 11:35:00,52.2,48.5,30.22,South,186,1.0,7.0,87,0.00,,---,0.00,VWS V14.00,2013-03-02 19:35:00,
2013-03-02 11:40:00,52.4,48.7,30.22,SSE,153,0.0,7.0,87,0.00,,---,0.00,VWS V14.00,2013-03-02 19:40:00,
2013-03-02 11:45:00,52.6,48.5,30.22,South,169,2.0,7.0,86,0.00,,---,0.00,VWS V14.00,2013-03-02 19:45:00,
2013-03-02 11:50:00,52.7,48.6,30.22,South,171,1.0,7.0,86,0.00,,---,0.00,VWS V14.00,2013-03-02 19:50:00,
2013-03-02 11:55:00,52.8,49.0,30.22,SE,134,4.0,7.0,87,0.00,,---,0.00,VWS V14.00,2013-03-02 19:55:00,
2013-03-02 12:00:00,52.9,49.1,30.22,SSW,197,5.0,7.0,87,0.00,,---,0.00,VWS V14.00,2013-03-02 20:00:00,
2013-03-02 12:05:00,53.0,48.9,30.22,South,172,4.0,7.0,86,0.00,,---,0.00,VWS V14.00,2013-03-02 20:05:00,
2013-03-02 12:10:00,53.1,49.0,30.22,South,176,2.0,7.0,86,0.00,,---,0.00,VWS V14.00,2013-03-02 20:10:00,
2013-03-02 12:15:00,53.0,48.9,30.22,SE,143,0.0,7.0,86,0.00,,---,0.00,VWS V14.00,2013-03-02 20:15:00,
2013-03-02 12:20:00,53.1,49.0,30.22,South,173,0.0,7.0,86,0.00,,---,0.00,VWS V14.00,2013-03-02 20:20:00,
2013-03-02 12:25:00,53.1,49.0,30.22,SW,221,3.0,7.0,86,0.00,,---,0.00,VWS V14.00,2013-03-02 20:25:00,
2013-03-02 12:30:00,53.2,49.4,30.21,SW,232,0.0,7.0,87,0.00,,---,0.00,VWS V14.00,2013-03-02 20:30:00,
2013-03-02 12:35:00,53.3,49.2,30.21,SSW,192,3.0,6.0,86,0.00,,---,0.00,VWS V14.00,2013-03-02 20:35:00,
2013-03-02 12:40:00,53.2,49.1,30.21,SW,221,3.0,6.0,86,0.00,,---,0.00,VWS V14.00,2013-03-02 20:40:00,
2013-03-02 12:45:00,53.3,49.5,30.21,SSW,208,0.0,6.0,87,0.00,,---,0.00,VWS V14.00,2013-03-02 20:45:00,
2013-03-02 12:50:00,53.2,49.4,30.21,SW,223,3.0,6.0,87,0.00,,---,0.00,VWS V14.00,2013-03-02 20:50:00,
2013-03-02 12:55:00,53.2,49.4,30.21,South,173,4.0,6.0,87,0.00,,---,0.00,VWS V14.00,2013-03-02 20:55:00,
2013-03-02 13:00:00,53.1,49.3,30.21,SSE,163,2.0,6.0,87,0.00,,---,0.00,VWS V14.00,2013-03-02 21:00:00,
2013-03-02 13:05:00,53.2,49.4,30.21,SW,235,5.0,7.0,87,0.00,,---,0.00,VWS V14.00,2013-03-02 21:05:00,
2013-03-02 13:10:00,53.2,49.4,30.21,SSW,193,4.0,7.0,87,0.00,,---,0.00,VWS V14.00,2013-03-02 21:10:00,
2013-03-02 13:15:00,53.2,49.4,30.21,SW,216,3.0,7.0,87,0.00,,---,0.00,VWS V14.00,2013-03-02 21:15:00,
2013-03-02 13:20:00,53.2,49.4,30.21,SSW,211,3.0,7.0,87,0.00,,---,0.00,VWS V14.00,2013-03-02 21:20:00,
2013-03-02 13:25:00,53.1,49.0,30.21,SW,215,3.0,7.0,86,0.00,,---,0.00,VWS V14.00,2013-03-02 21:25:00,
2013-03-02 13:30:00,53.0,49.2,30.21,SSE,159,6.0,7.0,87,0.00,,---,0.00,VWS V14.00,2013-03-02 21:30:00,
2013-03-02 13:35:00,53.0,49.5,30.21,SW,218,2.0,5.0,88,0.00,,---,0.00,VWS V14.00,2013-03-02 21:35:00,
2013-03-02 13:40:00,53.0,49.5,30.21,SSW,211,1.0,5.0,88,0.00,,---,0.00,VWS V14.00,2013-03-02 21:40:00,
2013-03-02 13:45:00,53.0,49.5,30.21,SW,219,6.0,6.0,88,0.00,,---,0.00,VWS V14.00,2013-03-02 21:45:00,
2013-03-02 13:50:00,53.0,49.5,30.21,SSW,205,2.0,6.0,88,0.00,,---,0.00,VWS V14.00,2013-03-02 21:50:00,
2013-03-02 13:55:00,53.0,49.5,30.21,South,180,1.0,6.0,88,0.00,,---,0.00,VWS V14.00,2013-03-02 21:55:00,
2013-03-02 14:00:00,52.8,49.7,30.21,SW,219,2.0,6.0,89,0.00,,---,0.00,VWS V14.00,2013-03-02 22:00:00,
2013-03-02 14:05:00,52.7,49.8,30.21,SW,216,2.0,3.0,90,0.00,,---,0.00,VWS V14.00,2013-03-02 22:05:00,
2013-03-02 14:10:00,52.3,48.9,30.21,SW,217,1.0,5.0,88,0.00,,---,0.00,VWS V14.00,2013-03-02 22:10:00,
2013-03-02 14:15:00,51.9,48.5,30.21,SSW,206,2.0,6.0,88,0.00,,---,0.00,VWS V14.00,2013-03-02 22:15:00,
2013-03-02 14:20:00,51.7,48.3,30.21,SW,214,0.0,6.0,88,0.00,,---,0.00,VWS V14.00,2013-03-02 22:20:00,
2013-03-02 14:25:00,51.5,48.1,30.21,South,182,3.0,6.0,88,0.00,,---,0.00,VWS V14.00,2013-03-02 22:25:00,
2013-03-02 14:30:00,51.3,47.9,30.21,SSW,198,2.0,8.0,88,0.00,,---,0.00,VWS V14.00,2013-03-02 22:30:00,
2013-03-02 14:35:00,51.1,48.0,30.21,South,186,1.0,4.0,89,0.00,,---,0.00,VWS V14.00,2013-03-02 22:35:00,
2013-03-02 14:40:00,51.0,48.2,30.21,South,180,2.0,4.0,90,0.00,,---,0.00,VWS V14.00,2013-03-02 22:40:00,
2013-03-02 14:45:00,51.0,48.2,30.20,South,184,2.0,4.0,90,0.00,,---,0.00,VWS V14.00,2013-03-02 22:45:00,
2013-03-02 14:50:00,51.1,48.3,30.20,South,179,2.0,6.0,90,0.00,,---,0.00,VWS V14.00,2013-03-02 22:50:00,
2013-03-02 14:56:00,51.1,48.6,30.20,South,178,4.0,6.0,91,0.00,,---,0.00,VWS V14.00,2013-03-02 22:56:00,
2013-03-02 15:01:00,51.1,48.6,30.20,SSW,202,1.0,6.0,91,0.00,,---,0.00,VWS V14.00,2013-03-02 23:01:00,
2013-03-02 15:06:00,51.1,48.6,30.20,South,191,1.0,4.0,91,0.00,,---,0.00,VWS V14.00,2013-03-02 23:06:00,
2013-03-02 15:11:00,51.0,48.5,30.20,SSE,166,2.0,5.0,91,0.00,,---,0.00,VWS V14.00,2013-03-02 23:11:00,
2013-03-02 15:16:00,51.0,48.5,30.20,SSW,199,3.0,5.0,91,0.00,,---,0.00,VWS V14.00,2013-03-02 23:16:00,
2013-03-02 15:21:00,51.0,48.5,30.20,South,180,2.0,6.0,91,0.00,,---,0.00,VWS V14.00,2013-03-02 23:21:00,
2013-03-02 15:26:00,51.0,48.5,30.20,SSW,192,1.0,6.0,91,0.00,,---,0.00,VWS V14.00,2013-03-02 23:26:00,
2013-03-02 15:31:00,51.1,48.6,30.20,SSW,194,5.0,6.0,91,0.00,,---,0.00,VWS V14.00,2013-03-02 23:31:00,
2013-03-02 15:36:00,51.0,48.5,30.20,SSW,197,3.0,4.0,91,0.00,,---,0.00,VWS V14.00,2013-03-02 23:36:00,
2013-03-02 15:41:00,51.0,48.5,30.20,South,175,1.0,5.0,91,0.00,,---,0.00,VWS V14.00,2013-03-02 23:41:00,
2013-03-02 15:46:00,51.0,48.5,30.20,SSW,196,1.0,5.0,91,0.00,,---,0.00,VWS V14.00,2013-03-02 23:46:00,
2013-03-02 15:51:00,51.1,48.6,30.20,SSE,147,1.0,5.0,91,0.00,,---,0.00,VWS V14.00,2013-03-02 23:51:00,
2013-03-02 15:56:00,51.2,48.7,30.20,SSE,157,1.0,5.0,91,0.00,,---,0.00,VWS V14.00,2013-03-02 23:56:00,
2013-03-02 16:01:00,51.3,48.8,30.20,SSE,148,2.0,5.0,91,0.00,,---,0.00,VWS V14.00,2013-03-03 00:01:00,
2013-03-02 16:06:00,51.4,48.9,30.20,South,171,2.0,4.0,91,0.00,,---,0.00,VWS V14.00,2013-03-03 00:06:00,
2013-03-02 16:11:00,51.5,49.0,30.20,South,171,1.0,4.0,91,0.00,,---,0.00,VWS V14.00,2013-03-03 00:11:00,
2013-03-02 16:16:00,51.5,49.0,30.19,SSE,157,0.0,5.0,91,0.00,,---,0.00,VWS V14.00,2013-03-03 00:16:00,
2013-03-02 16:21:00,51.6,49.1,30.19,South,178,0.0,5.0,91,0.00,,---,0.00,VWS V14.00,2013-03-03 00:21:00,
2013-03-02 16:26:00,51.7,49.2,30.19,SSE,157,0.0,5.0,91,0.00,,---,0.00,VWS V14.00,2013-03-03 00:26:00,
2013-03-02 16:31:00,51.8,49.3,30.19,SSE,165,0.0,5.0,91,0.00,,---,0.00,VWS V14.00,2013-03-03 00:31:00,
2013-03-02 16:36:00,51.9,49.4,30.19,SSE,165,1.0,2.0,91,0.00,,---,0.00,VWS V14.00,2013-03-03 00:36:00,
2013-03-02 16:41:00,51.9,49.4,30.19,South,171,1.0,4.0,91,0.00,,---,0.00,VWS V14.00,2013-03-03 00:41:00,
2013-03-02 16:46:00,51.9,49.4,30.19,SSE,168,1.0,4.0,91,0.00,,---,0.00,VWS V14.00,2013-03-03 00:46:00,
2013-03-02 16:51:00,51.8,49.3,30.19,SSE,157,2.0,4.0,91,0.00,,---,0.00,VWS V14.00,2013-03-03 00:51:00,
2013-03-02 16:56:00,51.7,49.2,30.19,SSE,157,1.0,4.0,91,0.00,,---,0.00,VWS V14.00,2013-03-03 00:56:00,
2013-03-02 17:01:00,51.7,49.2,30.19,South,175,1.0,4.0,91,0.00,,---,0.00,VWS V14.00,2013-03-03 01:01:00,
2013-03-02 17:06:00,51.7,49.2,30.19,SE,136,1.0,4.0,91,0.00,,---,0.00,VWS V14.00,2013-03-03 01:06:00,
2013-03-02 17:11:00,51.7,49.2,30.19,SSW,194,0.0,4.0,91,0.00,,---,0.00,VWS V14.00,2013-03-03 01:11:00,
2013-03-02 17:16:00,51.7,49.2,30.19,SSE,153,1.0,4.0,91,0.00,,---,0.00,VWS V14.00,2013-03-03 01:16:00,
2013-03-02 17:21:00,51.6,49.1,30.19,SSE,159,0.0,4.0,91,0.00,,---,0.00,VWS V14.00,2013-03-03 01:21:00,
2013-03-02 17:26:00,51.6,49.1,30.19,SSE,150,2.0,4.0,91,0.00,,---,0.00,VWS V14.00,2013-03-03 01:26:00,
2013-03-02 17:31:00,51.5,49.0,30.19,SSE,166,2.0,4.0,91,0.00,,---,0.00,VWS V14.00,2013-03-03 01:31:00,
2013-03-02 17:36:00,51.5,49.3,30.19,South,175,2.0,4.0,92,0.00,,---,0.00,VWS V14.00,2013-03-03 01:36:00,
2013-03-02 17:41:00,51.5,49.3,30.19,SW,227,3.0,4.0,92,0.00,,---,0.00,VWS V14.00,2013-03-03 01:41:00,
2013-03-02 17:46:00,51.4,49.2,30.19,SW,217,3.0,5.0,92,0.00,,---,0.00,VWS V14.00,2013-03-03 01:46:00,
2013-03-02 17:51:00,51.4,49.2,30.19,South,177,2.0,7.0,92,0.00,,---,0.00,VWS V14.00,2013-03-03 01:51:00,
2013-03-02 17:56:00,51.4,49.2,30.19,South,180,2.0,7.0,92,0.00,,---,0.00,VWS V14.00,2013-03-03 01:56:00,
2013-03-02 18:01:00,51.4,49.2,30.19,South,177,0.0,7.0,92,0.00,,---,0.00,VWS V14.00,2013-03-03 02:01:00,
2013-03-02 18:06:00,51.3,49.3,30.19,South,185,1.0,2.0,93,0.00,,---,0.00,VWS V14.00,2013-03-03 02:06:00,
2013-03-02 18:11:00,51.3,49.1,30.19,SSW,213,1.0,3.0,92,0.00,,---,0.00,VWS V14.00,2013-03-03 02:11:00,
2013-03-02 18:16:00,51.2,49.0,30.19,SW,236,3.0,3.0,92,0.00,,---,0.00,VWS V14.00,2013-03-03 02:16:00,
2013-03-02 18:21:00,51.2,49.0,30.19,SSW,205,0.0,3.0,92,0.00,,---,0.00,VWS V14.00,2013-03-03 02:21:00,
2013-03-02 18:26:00,51.1,49.2,30.19,SSW,205,0.0,3.0,93,0.00,,---,0.00,VWS V14.00,2013-03-03 02:26:00,
2013-03-02 18:31:00,51.1,48.9,30.19,SSW,198,0.0,4.0,92,0.00,,---,0.00,VWS V14.00,2013-03-03 02:31:00,
2013-03-02 18:36:00,51.0,48.8,30.20,SSW,198,0.0,2.0,92,0.00,,---,0.00,VWS V14.00,2013-03-03 02:36:00,
2013-03-02 18:41:00,51.0,48.8,30.20,SSW,198,1.0,2.0,92,0.00,,---,0.00,VWS V14.00,2013-03-03 02:41:00,
2013-03-02 18:46:00,50.9,48.4,30.20,SSW,202,5.0,5.0,91,0.00,,---,0.00,VWS V14.00,2013-03-03 02:46:00,
2013-03-02 18:51:00,50.7,47.9,30.20,South,181,2.0,6.0,90,0.00,,---,0.00,VWS V14.00,2013-03-03 02:51:00,
2013-03-02 18:56:00,50.5,47.7,30.20,South,190,2.0,6.0,90,0.00,,---,0.00,VWS V14.00,2013-03-03 02:56:00,
2013-03-02 19:01:00,50.3,47.8,30.20,SSW,196,2.0,6.0,91,0.00,,---,0.00,VWS V14.00,2013-03-03 03:01:00,
2013-03-02 19:06:00,50.3,47.8,30.20,South,171,1.0,4.0,91,0.00,,---,0.00,VWS V14.00,2013-03-03 03:06:00,
2013-03-02 19:11:00,50.3,47.8,30.20,SW,219,0.0,4.0,91,0.00,,---,0.00,VWS V14.00,2013-03-03 03:11:00,
2013-03-02 19:16:00,50.3,47.8,30.20,SSW,211,0.0,5.0,91,0.00,,---,0.00,VWS V14.00,2013-03-03 03:16:00,
2013-03-02 19:22:00,50.3,47.8,30.20,SSW,211,0.0,5.0,91,0.00,,---,0.00,VWS V14.00,2013-03-03 03:22:00,
2013-03-02 19:27:00,50.0,47.2,30.21,NNW,344,1.0,8.0,90,0.00,,---,0.00,VWS V14.00,2013-03-03 03:27:00,
2013-03-02 19:32:00,49.2,46.4,30.21,NNE,13,4.0,8.0,90,0.01,,---,0.01,VWS V14.00,2013-03-03 03:32:00,
2013-03-02 19:37:00,48.5,46.0,30.21,NE,46,1.0,5.0,91,0.01,,---,0.01,VWS V14.00,2013-03-03 03:37:00,
2013-03-02 19:42:00,47.9,45.4,30.21,NE,51,1.0,5.0,91,0.01,,---,0.01,VWS V14.00,2013-03-03 03:42:00,
2013-03-02 19:47:00,47.5,45.3,30.21,NE,34,1.0,5.0,92,0.01,,---,0.01,VWS V14.00,2013-03-03 03:47:00,
2013-03-02 19:52:00,47.2,44.7,30.21,NNE,16,2.0,5.0,91,0.01,,---,0.01,VWS V14.00,2013-03-03 03:52:00,
2013-03-02 19:57:00,46.9,44.4,30.21,SSE,156,0.0,5.0,91,0.01,,---,0.01,VWS V14.00,2013-03-03 03:57:00,
2013-03-02 20:02:00,46.8,44.0,30.21,ENE,63,1.0,5.0,90,0.01,,---,0.01,VWS V14.00,2013-03-03 04:02:00,
2013-03-02 20:07:00,46.6,43.8,30.21,NNE,19,0.0,5.0,90,0.01,,---,0.01,VWS V14.00,2013-03-03 04:07:00,
2013-03-02 20:12:00,46.5,43.4,30.21,NW,304,2.0,5.0,89,0.01,,---,0.01,VWS V14.00,2013-03-03 04:12:00,
2013-03-02 20:17:00,46.5,43.7,30.21,North,360,2.0,5.0,90,0.01,,---,0.01,VWS V14.00,2013-03-03 04:17:00,
2013-03-02 20:22:00,46.4,43.3,30.21,North,355,0.0,5.0,89,0.01,,---,0.01,VWS V14.00,2013-03-03 04:22:00,
2013-03-02 20:27:00,46.3,43.2,30.22,North,355,0.0,5.0,89,0.01,,---,0.01,VWS V14.00,2013-03-03 04:27:00,
2013-03-02 20:32:00,46.2,43.1,30.22,NNW,344,1.0,5.0,89,0.01,,---,0.01,VWS V14.00,2013-03-03 04:32:00,
2013-03-02 20:37:00,46.1,43.0,30.22,NNW,346,0.0,4.0,89,0.00,,---,0.01,VWS V14.00,2013-03-03 04:37:00,
2013-03-02 20:42:00,46.0,43.0,30.22,North,350,2.0,4.0,89,0.00,,---,0.01,VWS V14.00,2013-03-03 04:42:00,
2013-03-02 20:47:00,46.0,43.0,30.22,North,5,2.0,4.0,89,0.00,,---,0.01,VWS V14.00,2013-03-03 04:47:00,
2013-03-02 20:52:00,45.8,42.8,30.22,NNE,15,2.0,5.0,89,0.00,,---,0.01,VWS V14.00,2013-03-03 04:52:00,
2013-03-02 20:57:00,45.7,42.9,30.23,NW,319,1.0,5.0,90,0.00,,---,0.01,VWS V14.00,2013-03-03 04:57:00,
2013-03-02 21:00:00,45.6,42.8,30.23,NNW,334,0.0,5.0,90,0.00,,---,0.01,VWS V14.00,2013-03-03 05:00:00,
2013-03-02 21:01:00,45.5,42.5,30.23,NNE,13,2.0,5.0,89,0.00,,---,0.01,VWS V14.00,2013-03-03 05:01:00,
2013-03-02 21:06:00,45.4,42.3,30.23,West,271,0.0,5.0,89,0.00,,---,0.01,VWS V14.00,2013-03-03 05:06:00,
2013-03-02 21:11:00,45.4,42.1,30.23,North,5,3.0,7.0,88,0.00,,---,0.01,VWS V14.00,2013-03-03 05:11:00,
2013-03-02 21:16:00,45.4,41.8,30.23,NE,50,2.0,7.0,87,0.00,,---,0.01,VWS V14.00,2013-03-03 05:16:00,
2013-03-02 21:21:00,45.4,42.1,30.24,NNW,344,0.0,7.0,88,0.00,,---,0.01,VWS V14.00,2013-03-03 05:21:00,
2013-03-02 21:26:00,45.3,41.4,30.24,North,5,1.0,7.0,86,0.00,,---,0.01,VWS V14.00,2013-03-03 05:26:00,
2013-03-02 21:31:00,45.3,41.4,30.24,NW,319,2.0,7.0,86,0.00,,---,0.01,VWS V14.00,2013-03-03 05:31:00,
2013-03-02 21:36:00,45.2,41.3,30.24,NW,323,1.0,4.0,86,0.00,,---,0.01,VWS V14.00,2013-03-03 05:36:00,
2013-03-02 21:41:00,45.2,41.3,30.25,NNE,12,1.0,4.0,86,0.00,,---,0.01,VWS V14.00,2013-03-03 05:41:00,
2013-03-02 21:46:00,45.2,41.3,30.25,NNW,346,0.0,4.0,86,0.00,,---,0.01,VWS V14.00,2013-03-03 05:46:00,
2013-03-02 21:51:00,45.1,41.5,30.25,NNW,330,2.0,4.0,87,0.00,,---,0.01,VWS V14.00,2013-03-03 05:51:00,
2013-03-02 21:56:00,45.1,41.2,30.25,NNW,342,2.0,4.0,86,0.00,,---,0.01,VWS V14.00,2013-03-03 05:56:00,
2013-03-02 22:01:00,45.1,41.2,30.25,NNW,340,3.0,4.0,86,0.00,,---,0.01,VWS V14.00,2013-03-03 06:01:00,
2013-03-02 22:06:00,45.0,41.1,30.25,North,10,0.0,4.0,86,0.00,,---,0.01,VWS V14.00,2013-03-03 06:06:00,
2013-03-02 22:11:00,45.1,41.5,30.26,NNW,335,0.0,4.0,87,0.00,,---,0.01,VWS V14.00,2013-03-03 06:11:00,
2013-03-02 22:16:00,45.0,41.4,30.26,NNW,335,0.0,4.0,87,0.00,,---,0.01,VWS V14.00,2013-03-03 06:16:00,
2013-03-02 22:21:00,45.0,41.7,30.26,NNW,335,0.0,4.0,88,0.00,,---,0.01,VWS V14.00,2013-03-03 06:21:00,
2013-03-02 22:26:00,45.0,41.7,30.26,NNW,335,0.0,4.0,88,0.00,,---,0.01,VWS V14.00,2013-03-03 06:26:00,
2013-03-02 22:31:00,44.9,41.6,30.26,NNW,335,0.0,4.0,88,0.00,,---,0.01,VWS V14.00,2013-03-03 06:31:00,
2013-03-02 22:36:00,44.8,41.5,30.25,NNW,335,0.0,0.0,88,0.00,,---,0.01,VWS V14.00,2013-03-03 06:36:00,
2013-03-02 22:41:00,44.8,41.8,30.25,NNE,15,0.0,1.0,89,0.00,,---,0.01,VWS V14.00,2013-03-03 06:41:00,
2013-03-02 22:46:00,44.7,41.7,30.25,NNE,14,0.0,1.0,89,0.00,,---,0.01,VWS V14.00,2013-03-03 06:46:00,
2013-03-02 22:51:00,44.7,41.7,30.25,NNE,13,0.0,1.0,89,0.00,,---,0.01,VWS V14.00,2013-03-03 06:51:00,
2013-03-02 22:56:00,44.6,41.6,30.26,North,11,0.0,1.0,89,0.00,,---,0.01,VWS V14.00,2013-03-03 06:56:00,
2013-03-02 23:01:00,44.6,41.6,30.25,NNE,12,1.0,1.0,89,0.00,,---,0.01,VWS V14.00,2013-03-03 07:01:00,
2013-03-02 23:06:00,44.6,41.3,30.25,NNW,338,0.0,4.0,88,0.00,,---,0.01,VWS V14.00,2013-03-03 07:06:00,
2013-03-02 23:11:00,44.5,41.2,30.26,NNW,333,2.0,4.0,88,0.00,,---,0.01,VWS V14.00,2013-03-03 07:11:00,
2013-03-02 23:17:00,44.5,41.2,30.26,North,9,0.0,4.0,88,0.00,,---,0.01,VWS V14.00,2013-03-03 07:17:00,
2013-03-02 23:22:00,44.5,41.2,30.26,NNW,338,1.0,4.0,88,0.00,,---,0.01,VWS V14.00,2013-03-03 07:22:00,
2013-03-02 23:27:00,44.4,40.8,30.26,North,355,1.0,4.0,87,0.00,,---,0.01,VWS V14.00,2013-03-03 07:27:00,
2013-03-02 23:32:00,44.3,40.7,30.26,NNW,338,1.0,4.0,87,0.00,,---,0.01,VWS V14.00,2013-03-03 07:32:00,
2013-03-02 23:37:00,44.2,40.9,30.26,NNW,338,0.0,2.0,88,0.00,,---,0.01,VWS V14.00,2013-03-03 07:37:00,
2013-03-02 23:42:00,44.1,40.8,30.26,NNW,332,0.0,2.0,88,0.00,,---,0.01,VWS V14.00,2013-03-03 07:42:00,
2013-03-02 23:47:00,43.9,40.6,30.26,NNW,332,1.0,3.0,88,0.00,,---,0.01,VWS V14.00,2013-03-03 07:47:00,
2013-03-02 23:52:00,43.7,40.1,30.26,NNW,339,0.0,3.0,87,0.00,,---,0.01,VWS V14.00,2013-03-03 07:52:00,
2013-03-02 23:57:00,43.6,40.0,30.26,NNW,340,0.0,3.0,87,0.00,,---,0.01,VWS V14.00,2013-03-03 07:57:00,